Location: Unspecified
(0.0000°N, 0.0000°E)
Time: 21:44:59
(UTC+00:00)

Vanguard 1 - Pass Details

Date: 24 June 2025
Orbit: 649 x 3822 km, 34.2° (Epoch: 12 July)

Event Time Altitude Azimuth Distance (km) Brightness Sun altitude
Rises 19:21:26 0° 273° (W) 7,615 15.9 -18.0°
Reaches altitude 10° 19:29:13 10° 260° (W) 6,126 14.9 -19.8°
Maximum altitude 19:41:01 21° 218° (SW) 4,250 13.4 -22.5°
Drops below altitude 10° 19:49:21 10° 173° (S) 4,161 13.0 -24.3°
Enters shadow 19:49:53 - 171° (S) 4,211 13.0 -24.5°
